Weather History for Cut Bank, MT

Change the Weather History Date:

Sunday, June 16, 2013

  Actual Average Record
Temperature  
Mean Temperature 56 °F 58 °F  
Max Temperature 71 °F 71 °F 96 °F (1933)
Min Temperature 41 °F 45 °F 32 °F (1994)
Degree Days  
Heating Degree Days 9 8  
Month to date heating degree days 150 147  
Since 1 June heating degree days 150 147  
Since 1 July heating degree days 8182 8435  
Cooling Degree Days 0 0  
Month to date cooling degree days 0 0  
Year to date cooling degree days 2 2  
Since 1 June cooling degree days 0 0  
Growing Degree Days 6 (Base 50)    
Moisture  
Dew Point 43 °F    
Average Humidity 64    
Maximum Humidity 92    
Minimum Humidity 35    
Precipitation  
Precipitation 0.00 in 0.09 in 2.37 in (1948)
Month to date precipitation 1.03 1.52  
Year to date precipitation 5.62 5.16  
Snow  
Snow 0.00 in - - ()
Snow Depth 0.00 in    
Sea Level Pressure  
Sea Level Pressure 30.10 in    
Wind  
Wind Speed 7 mph (North)    
Max Wind Speed 14 mph    
Max Gust Speed 18 mph    
Visibility 10 miles    
Events      
T = Trace of Precipitation, MM = Missing Value Source: NWS Daily Summary

Daily Weather History Graph

Daily Weather History Graph

Search for Another Location

Airport:

Trip Planner

Search our weather history database for the weather conditions in past years. The results will help you decide how hot, cold, wet, or windy it might be!

Date:

Astronomy

Jun. 16, 2013 Rise Set
Actual Time 5:26 AM MDT 9:34 PM MDT
Civil Twilight 4:44 AM MDT 10:16 PM MDT
Nautical Twilight 3:44 AM MDT 11:16 PM MDT
Astronomical Twilight 1:40 AM MDT 1:25 AM MDT
Moon 1:43 PM MDT (6/16) 1:07 AM MDT (6/16)
Length of Visible Light 17h 32m
Length of Day
16h 07m
Waxing Crescent, 50% of the Moon is Illuminated
Jun 16
Waxing Crescent
Jun 23
Full
Jun 29
Last Quarter
Jul 8
New
Jul 15
First Quarter

Hourly Weather History & Observations

Time (MDT) Temp. Windchill Dew Point Humidity Pressure Visibility Wind Dir Wind Speed Gust Speed Precip Events Conditions
12:56 AM 45.0 °F - 42.1 °F 90% 30.04 in 10.0 mi North - - N/A   Clear
1:56 AM 45.0 °F 39.3 °F 42.1 °F 90% 30.04 in 10.0 mi NNW 11.5 mph - N/A   Clear
2:56 AM 45.0 °F 39.7 °F 42.1 °F 90% 30.06 in 10.0 mi WNW 10.4 mph - N/A   Clear
3:56 AM 44.1 °F 39.5 °F 42.1 °F 93% 30.08 in 10.0 mi West 8.1 mph - N/A   Clear
4:56 AM 43.0 °F 39.5 °F 39.9 °F 89% 30.09 in 10.0 mi North 5.8 mph - N/A   Clear
5:56 AM 42.1 °F 40.2 °F 39.0 °F 89% 30.11 in 10.0 mi WNW 3.5 mph - N/A   Clear
6:56 AM 48.9 °F - 43.0 °F 80% 30.11 in 10.0 mi NNW 6.9 mph - N/A   Clear
7:56 AM 52.0 °F - 44.1 °F 74% 30.12 in 10.0 mi North 11.5 mph - N/A   Overcast
8:56 AM 55.0 °F - 45.0 °F 69% 30.13 in 10.0 mi North 6.9 mph - N/A   Overcast
9:56 AM 57.0 °F - 44.1 °F 62% 30.14 in 10.0 mi NNW 5.8 mph - N/A   Overcast
10:56 AM 60.1 °F - 44.1 °F 55% 30.13 in 10.0 mi NNE 4.6 mph - N/A   Partly Cloudy
11:56 AM 64.0 °F - 44.1 °F 48% 30.13 in 10.0 mi Variable 5.8 mph - N/A   Partly Cloudy
12:56 PM 64.9 °F - 42.1 °F 43% 30.14 in 10.0 mi Calm Calm - N/A   Scattered Clouds
1:56 PM 66.0 °F - 43.0 °F 43% 30.12 in 10.0 mi WNW 5.8 mph - N/A   Mostly Cloudy
2:56 PM 69.1 °F - 41.0 °F 36% 30.12 in 10.0 mi Variable 4.6 mph - N/A   Mostly Cloudy
3:56 PM 68.0 °F - 41.0 °F 37% 30.11 in 10.0 mi North 10.4 mph - N/A   Clear
4:56 PM 71.1 °F - 42.1 °F 35% 30.09 in 10.0 mi Variable 5.8 mph - N/A   Clear
5:56 PM 71.1 °F - 42.1 °F 35% 30.09 in 10.0 mi North 6.9 mph - N/A   Clear
6:56 PM 69.1 °F - 42.1 °F 38% 30.09 in 10.0 mi NNE 9.2 mph - N/A   Clear
7:56 PM 66.9 °F - 43.0 °F 42% 30.09 in 10.0 mi ENE 4.6 mph - N/A   Clear
8:56 PM 62.1 °F - 44.1 °F 52% 30.10 in 10.0 mi ENE 6.9 mph - N/A   Clear
9:56 PM 57.9 °F - 45.0 °F 62% 30.12 in 10.0 mi ENE 9.2 mph - N/A   Clear
10:56 PM 55.0 °F - 46.0 °F 72% 30.13 in 10.0 mi ENE 8.1 mph - N/A   Clear
11:56 PM 55.0 °F - 46.0 °F 72% 30.13 in 10.0 mi ENE 8.1 mph - N/A   Partly Cloudy